Location: Dal�� Lhota
(48.7500°N, 14.0167°E)
Time: 09:26:32
(UTC+00:00)

Explorer 7 - Pass Details

Date: 01 August 2021
Orbit: 484 x 676 km, 50.3° (Epoch: 21 September)

Event Time Altitude Azimuth Distance (km) Brightness Sun altitude
Rises 08:36:30 0° 287° (WNW) 2,667 9.9 46.3°
Reaches altitude 10° 08:38:40 10° 285° (WNW) 1,804 9.2 46.6°
Maximum altitude 08:42:46 73° 202° (SSW) 594 7.9 47.1°
Drops below altitude 10° 08:47:08 10° 117° (ESE) 1,920 10.5 47.7°
Sets 08:49:29 0° 116° (ESE) 2,855 11.1 48.1°
